Location: Copper Breaks State Park
(34.1132°N, 99.7492°W)
Time: 20:31:48
(UTC-05:00)

Daily predictions for brighter satellites

Satellite Brightness Start Highest point End
(mag) Time Altitude Azimuth Time Altitude Azimuth Time Altitude Azimuth
Cosmos 1821 Rocket 4.1 20:30:26 10° SSE 20:36:20 53° E 20:42:15 10° NNE
Okean 1-7 Rocket 3.9 20:32:15 10° N 20:36:37 72° W 20:40:59 10° S
Meteor 1-11 Rocket 4.1 20:35:47 10° SSW 20:41:22 70° W 20:46:54 10° N
CZ-4B DEB 3.4 20:39:17 10° SE 20:42:19 37° ENE 20:45:23 10° N
OAO 2 Rocket 3.5 20:37:49 10° WSW 20:42:43 59° SSE 20:47:44 10° E
NOSS 7 (E) 4.5 20:39:15 10° SSW 20:42:53 57° ESE 20:46:10 10° NE
FREGAT/IRIS 3.8 20:40:47 10° S 20:43:50 48° W 20:46:53 10° NNW
Helios 1B rocket 3.3 20:41:30 10° N 20:45:32 56° WNW 20:49:33 10° SSW
Cosmos 2219 3.4 20:46:47 10° NNW 20:52:23 75° WSW 20:57:59 10° SSE
DELTA 2 R/B (1) 4.3 20:49:08 10° WNW 20:54:30 47° N 20:59:52 10° ENE
Cosmos 1975 4.1 20:52:31 10° SE 20:55:38 21° E 20:58:44 10° NE
Meteor 2-21 Rocket 4.5 20:51:03 10° S 20:57:16 82° E 21:03:28 10° N
Okean 2 3.6 20:54:49 10° N 20:58:52 49° E 21:02:53 10° SSE
Helios 1A 3.7 20:55:06 10° S 20:59:11 57° W 21:03:19 10° NNW
EO 1 Delta rocket 4.1 20:58:19 10° NNE 21:02:59 56° E 21:08:25 10° S
Cosmos 1697 Rocket 3.7 20:59:44 10° SSE 21:04:00 23° E 21:08:18 10° NE
BREEZE-M DEB (TANK) 4.0 20:53:12 10° NW 21:04:19 53° SW 21:07:47 10° SSE
Cosmos 968 Rocket 4.0 20:59:55 10° NNW 21:04:58 60° WSW 21:09:58 10° S
Cosmos 2278 3.6 21:00:32 10° SSW 21:06:10 74° ESE 21:11:51 10° NNE
Meteor 2-4 Rocket 3.9 21:01:17 10° N 21:07:11 85° W 21:13:06 10° S
Lacrosse 5 rocket 3.2 21:05:38 10° N 21:07:39 14° NE 21:09:24 11° ENE
ALOS 2.2 21:04:47 10° SSE 21:09:26 74° ENE 21:14:06 10° N
ERS-1 Rocket 4.1 21:07:45 16° ESE 21:10:31 25° ENE 21:14:34 10° NNE
Cosmos 2123 Rocket 4.0 21:06:09 10° N 21:12:14 59° E 21:18:18 10° SSE
H-2A R/B 2.7 21:08:43 10° SSE 21:12:31 63° ENE 21:16:24 10° N
Cosmos 1892 Rocket 3.6 21:08:04 10° N 21:12:34 89° E 21:17:02 10° S
Cosmos 1025 Rocket 3.9 21:09:19 10° NNW 21:13:33 51° W 21:17:43 10° SSW
Cosmos 1455 Rocket 2.9 21:09:47 10° S 21:14:06 85° E 21:18:27 10° N
Resurs 1-3 4.5 21:10:27 10° S 21:14:42 51° W 21:18:59 10° NNW
Meteor 2-15 4.4 21:08:49 10° N 21:14:53 77° E 21:20:55 10° S
Meteor 1-12 Rocket 4.4 21:11:27 10° S 21:16:57 53° E 21:22:34 10° NNE
Cosmos 2369 3.7 21:13:50 10° SSW 21:19:29 85° ESE 21:25:12 10° NNE
Cosmos 1461 3.6 21:16:01 10° N 21:19:40 33° NE 21:21:13 24° E
Meteor 2-15 Rocket 4.4 21:14:08 10° N 21:20:12 72° E 21:26:14 10° SSE
Cosmos 1602 Rocket 4.2 21:18:00 10° NNE 21:22:07 35° E 21:24:05 24° SE
SL-24 R/B - RUBIN 2 4.3 21:20:12 10° SSW 21:25:41 58° ESE 21:31:52 10° NE
Cosmos 1980 Rocket 3.4 21:26:51 20° E 21:26:51 20° E 21:30:15 10° NE
Cosmos 1939 Rocket 4.0 21:27:38 25° E 21:28:21 26° ENE 21:31:49 10° NNE
CZ-2D R/B 3.6 21:25:36 10° S 21:29:25 67° W 21:33:17 10° NNW
Resurs 01 Rocket 3.9 21:28:27 10° SSW 21:32:01 24° W 21:35:38 10° NW
Cosmos 468 Rocket 4.3 21:28:42 10° S 21:33:27 40° ESE 21:38:13 10° NNE
Cosmos 1153 Rocket 4.4 21:30:01 10° S 21:36:09 65° E 21:42:14 10° NNE
Hubble Space Telescope 2.1 21:33:51 10° WSW 21:37:20 26° SSW 21:38:23 23° S
Lacrosse 5 3.9 21:34:25 10° N 21:37:26 16° NNE 21:39:26 13° ENE
Cosmos 1814 Rocket 4.4 21:37:26 14° SSE 21:41:37 41° E 21:46:35 10° NNE
SPOT 5 4.2 21:41:21 24° ENE 21:41:44 24° ENE 21:45:37 10° NNE
USA 186 2.7 21:41:35 17° SSW 21:43:42 44° W 21:46:36 10° NNW
Cosmos 220 Rocket 4.2 21:42:00 10° N 21:46:04 45° ENE 21:46:33 43° E
Tiangong 1 3.5 21:45:06 10° NW 21:47:08 16° N 21:48:23 13° NNE
Cosmos 1346 Rocket 3.7 21:44:18 10° NNW 21:48:06 47° W 21:51:31 13° SSW
OTV 4 0.9 21:45:26 10° WNW 21:48:16 54° N 21:48:16 54° N
Delta 2 Rocket 3.8 21:43:55 10° WNW 21:49:31 81° SSW 21:51:17 42° ESE
Cosmos 1802 Rocket 4.5 21:47:44 31° SE 21:49:49 40° E 21:55:43 10° NNE
Cosmos 1447 Rocket 4.4 21:46:27 10° N 21:52:46 72° E 21:56:38 25° SSE
Cosmos 1500 3.0 21:53:26 66° SE 21:53:47 73° E 21:57:33 10° N
Cosmos 2227 Rocket 2.2 21:51:40 10° NNW 21:57:21 80° WSW 22:00:12 31° SSE
CZ-4 DEB 3.0 21:59:28 66° NW 21:59:28 66° NW 22:02:17 10° NNW
RESURS DK-1 4.3 21:56:10 10° NNE 21:58:17 18° NE 21:58:17 18° NE
Cosmos 1656 3.8 21:54:40 10° SSW 22:00:19 78° WNW 22:05:55 10° NNE
CZ-3C R/B 3.6 21:27:01 10° W 22:05:51 41° SSW 22:09:52 28° SSE
Cosmos 2016 Rocket 4.2 22:07:39 45° ESE 22:08:06 46° E 22:13:56 10° NNE
Cosmos 2298 Rocket 4.0 22:03:01 10° N 22:08:18 62° ENE 22:08:57 57° ESE
Cosmos 2082 3.9 22:05:15 10° NNW 22:10:48 65° WSW 22:13:11 34° S
NOSS 3-4 (A) 4.2 22:04:13 10° NW 22:11:14 60° WSW 22:15:30 26° S
NOSS 3-4 (C) 4.2 22:04:20 10° NW 22:11:21 60° WSW 22:15:35 27° S
Cosmos 2297 Rocket 2.1 22:07:20 10° NNW 22:13:00 84° WSW 22:14:38 49° SSE
Envisat 2.9 22:14:26 61° SSE 22:15:22 86° ENE 22:20:28 10° NNW
H-2A R/B 4.2 22:19:51 11° NE 22:19:51 11° NE 22:20:25 10° NE
Cosmos 1515 4.3 22:16:26 10° NNW 22:20:00 56° WNW 22:20:00 56° WNW
Cosmos 2173 Rocket 3.9 22:17:29 31° S 22:20:50 85° E 22:27:12 10° N
Cosmos 1937 Rocket 3.8 22:19:06 10° N 22:23:51 53° NE 22:23:51 53° NE
Cosmos 1743 4.2 22:28:23 32° N 22:28:23 32° N 22:30:34 10° N
Cosmos 2098 Rocket 4.3 22:26:49 51° E 22:26:49 51° E 22:32:50 10° NNE
ASTEX 1 3.9 22:22:12 10° NNE 22:25:57 47° NE 22:25:57 47° NE
OAO 2 Rocket 3.3 22:22:25 10° W 22:27:30 82° N 22:27:31 81° N
Cosmos 2100 Rocket 4.2 22:27:04 22° SSW 22:31:19 71° W 22:37:35 10° N
Cosmos 2061 Rocket 4.0 22:29:06 31° SSW 22:32:22 78° W 22:38:39 10° N
Cosmos 2150 Rocket 3.9 22:29:56 10° NNW 22:34:52 81° NW 22:34:52 81° NW
MetOp-A 4.1 22:36:23 70° NNE 22:36:23 70° NNE 22:41:19 10° N
SPOT 1/Viking Rocket 4.4 22:37:52 39° NNE 22:37:52 39° NNE 22:41:32 10° N
DELTA 2 R/B (1) 3.6 22:35:51 10° WNW 22:41:10 71° N 22:41:10 71° N
H-2A R/B 3.2 22:43:39 39° NW 22:43:39 39° NW 22:46:26 10° NNW
Cosmos 972 Rocket 4.4 22:36:30 10° NNW 22:42:33 88° WSW 22:43:06 77° S
Lacrosse 5 rocket 3.4 22:43:36 10° NW 22:45:09 23° WNW 22:45:09 23° WNW
Cosmos 1697 Rocket 3.9 22:42:21 10° SW 22:47:39 41° WNW 22:52:57 10° N
ERS-1 Rocket 4.5 22:47:45 27° SW 22:49:06 31° W 22:53:32 10° NW
Cosmos 1898 Rocket 4.4 22:54:46 10° NNW 22:59:26 44° W 22:59:26 44° W
Cosmos 1725 Rocket 4.3 23:07:24 61° N 23:07:24 61° N 23:12:27 10° N
Cosmos 1980 Rocket 3.1 23:08:26 38° W 23:09:45 45° WNW 23:15:11 10° N
ARGOS 4.1 23:12:23 43° NNW 23:12:23 43° NNW 23:15:57 10° NNW
Milstar 3 Cent rocket 3.8 22:56:33 10° W 23:13:58 60° SSW 23:14:46 59° S
Lacrosse 5 3.5 23:15:59 10° NW 23:18:37 31° NW 23:18:37 31° NW
USA 215 3.9 23:32:14 47° NNE 23:32:14 47° NNE 23:37:30 10° NNW
Cosmos 2322 Rocket 4.3 23:45:08 19° N 23:45:08 19° N 23:46:43 10° NNE
Cosmos 2263 Rocket 4.2 23:38:01 10° N 23:39:56 20° N 23:39:56 20° N
